Weather History for KRCX - March, 2014

Change the Weather History Date:

Saturday, March 1, 2014

  Actual Average (WUND) Record (WUND)
Temperature  
Mean Temperature -1 °F -  
Max Temperature 5 °F - - (-1)
Min Temperature -8 °F - - (-1)
Degree Days  
Heating Degree Days 66    
Moisture  
Dew Point -11 °F    
Average Humidity 61    
Maximum Humidity 76    
Minimum Humidity 43    
Precipitation  
Precipitation 0.00 in - - ()
Sea Level Pressure  
Sea Level Pressure 30.28 in    
Wind  
Wind Speed 9 mph (NW)    
Max Wind Speed 15 mph    
Max Gust Speed 20 mph    
Visibility 10 miles    
Events      
Averages and records for this station are not official NWS values.
T = Trace of Precipitation, MM = Missing Value Source: NWS Daily Summary

Daily Weather History Graph

Daily Weather History Graph

Search for Another Location

Airport or City:

Trip Planner

Search our weather history database for the weather conditions in past years. The results will help you decide how hot, cold, wet, or windy it might be!

Date:

Astronomy

Mar. 01, 2014 Rise Set
Actual Time 6:42 AM CST 5:51 PM CST
Civil Twilight 6:12 AM CST 6:20 PM CST
Nautical Twilight 5:38 AM CST 6:55 PM CST
Astronomical Twilight 5:04 AM CST 7:29 PM CST
Moon 6:33 AM CST (3/1) 6:43 PM CST (3/1)
Length of Visible Light 12h 08m
Length of Day
11h 08m
New Moon, 0% of the Moon is Illuminated
Mar 1
New Moon
Mar 8
First Quarter
Mar 16
Full
Mar 23
Last Quarter
Mar 30
New

Hourly Weather History & Observations

Time (CST) Temp. Windchill Dew Point Humidity Pressure Visibility Wind Dir Wind Speed Gust Speed Precip Events Conditions
12:15 AM 5.9 °F -7.0 °F -2.2 °F 69% 30.08 in 10.0 mi NW 8.1 mph - N/A   Overcast
12:35 AM 5.9 °F -5.8 °F -2.4 °F 69% 30.08 in 10.0 mi NW 6.9 mph - N/A   Overcast
12:55 AM 5.5 °F -8.4 °F -3.1 °F 68% 30.09 in 10.0 mi NW 9.2 mph - N/A   Mostly Cloudy
1:15 AM 4.8 °F -8.3 °F -3.6 °F 68% 30.10 in 10.0 mi NW 8.1 mph - N/A   Mostly Cloudy
1:40 AM 4.1 °F -11.1 °F -4.0 °F 69% 30.11 in 10.0 mi NNW 10.4 mph - N/A   Overcast
1:55 AM 3.6 °F -10.9 °F -4.2 °F 70% 30.11 in 10.0 mi NNW 9.2 mph - N/A   Scattered Clouds
2:15 AM 3.0 °F -10.5 °F -4.7 °F 70% 30.11 in 10.0 mi NNW 8.1 mph - N/A   Clear
2:35 AM 2.1 °F -12.6 °F -4.9 °F 72% 30.12 in 10.0 mi NNW 9.2 mph - N/A   Clear
2:55 AM 1.9 °F -11.8 °F -5.1 °F 72% 30.12 in 10.0 mi NW 8.1 mph - N/A   Clear
3:15 AM 1.2 °F -14.7 °F -5.4 °F 74% 30.13 in 10.0 mi NW 10.4 mph - N/A   Clear
3:35 AM 0.5 °F -15.6 °F -6.0 °F 74% 30.14 in 10.0 mi NNW 10.4 mph - N/A   Clear
3:55 AM 0.1 °F -15.1 °F -6.2 °F 75% 30.15 in 10.0 mi NW 9.2 mph - N/A   Clear
4:15 AM -0.0 °F -14.2 °F -6.5 °F 74% 30.17 in 10.0 mi NW 8.1 mph - N/A   Scattered Clouds
4:35 AM -0.9 °F -15.3 °F -7.2 °F 75% 30.16 in 10.0 mi NW 8.1 mph - N/A   Mostly Cloudy
4:55 AM -1.5 °F -16.0 °F -7.8 °F 75% 30.17 in 10.0 mi NW 8.1 mph - N/A   Scattered Clouds
5:15 AM -1.8 °F -15.2 °F -8.1 °F 75% 30.18 in 10.0 mi NNW 6.9 mph - N/A   Clear
5:35 AM -2.4 °F -18.2 °F -8.5 °F 75% 30.20 in 10.0 mi NW 9.2 mph - N/A   Clear
5:55 AM -2.4 °F -18.2 °F -8.5 °F 75% 30.20 in 10.0 mi NW 9.2 mph - N/A   Clear
6:15 AM -2.4 °F -19.2 °F -8.5 °F 75% 30.21 in 10.0 mi NW 10.4 mph - N/A   Clear
6:35 AM -2.2 °F -15.6 °F -8.1 °F 76% 30.23 in 10.0 mi NW 6.9 mph - N/A   Clear
6:55 AM -2.2 °F -18.0 °F -8.1 °F 76% 30.24 in 10.0 mi NW 9.2 mph - N/A   Scattered Clouds
7:15 AM -2.2 °F -18.9 °F -8.1 °F 76% 30.25 in 10.0 mi NW 10.4 mph - N/A   Mostly Cloudy
7:35 AM -2.4 °F -20.1 °F -8.5 °F 75% 30.25 in 10.0 mi NW 11.5 mph - N/A   Mostly Cloudy
7:55 AM -2.4 °F -18.2 °F -8.5 °F 75% 30.25 in 10.0 mi NNW 9.2 mph - N/A   Scattered Clouds
8:15 AM -2.4 °F -17.1 °F -8.5 °F 75% 30.27 in 10.0 mi NW 8.1 mph - N/A   Scattered Clouds
8:35 AM -2.2 °F -18.0 °F -8.5 °F 75% 30.27 in 10.0 mi WNW 9.2 mph - N/A   Mostly Cloudy
8:55 AM -2.2 °F -18.0 °F -8.7 °F 74% 30.28 in 10.0 mi NW 9.2 mph - N/A   Overcast
9:15 AM -1.8 °F -18.5 °F -8.5 °F 73% 30.28 in 10.0 mi WNW 10.4 mph - N/A   Mostly Cloudy
9:35 AM -1.7 °F -17.3 °F -8.7 °F 72% 30.28 in 10.0 mi WNW 9.2 mph - N/A   Mostly Cloudy
9:55 AM -1.3 °F -16.8 °F -8.7 °F 71% 30.29 in 10.0 mi WNW 9.2 mph - N/A   Scattered Clouds
10:15 AM -0.9 °F -14.1 °F -8.9 °F 69% 30.30 in 10.0 mi NW 6.9 mph - N/A   Scattered Clouds
10:35 AM -0.4 °F -12.0 °F -8.9 °F 67% 30.29 in 10.0 mi West 5.8 mph - N/A   Scattered Clouds
10:55 AM 0.5 °F -14.6 °F -8.5 °F 66% 30.31 in 10.0 mi NW 9.2 mph - N/A   Mostly Cloudy
11:15 AM 0.5 °F -14.6 °F -8.7 °F 65% 30.30 in 10.0 mi WNW 9.2 mph - N/A   Overcast
11:35 AM 1.0 °F -12.9 °F -8.5 °F 64% 30.31 in 10.0 mi WNW 8.1 mph - N/A   Overcast
11:55 AM 1.2 °F -14.7 °F -8.7 °F 63% 30.32 in 10.0 mi NW 10.4 mph - N/A   Overcast
12:15 PM 1.4 °F -13.5 °F -9.0 °F 62% 30.31 in 10.0 mi NW 9.2 mph - N/A   Overcast
12:35 PM 1.8 °F -13.1 °F -8.9 °F 61% 30.31 in 10.0 mi West 9.2 mph - N/A   Scattered Clouds
12:55 PM 2.3 °F -13.4 °F -8.9 °F 60% 30.31 in 10.0 mi NW 10.4 mph - N/A   Scattered Clouds
1:15 PM 2.3 °F -13.4 °F -9.2 °F 59% 30.31 in 10.0 mi WNW 10.4 mph - N/A   Scattered Clouds
1:35 PM 2.3 °F -12.4 °F -9.6 °F 58% 30.30 in 10.0 mi NW 9.2 mph - N/A   Clear
1:55 PM 2.3 °F -12.4 °F -10.1 °F 56% 30.30 in 10.0 mi NW 9.2 mph - N/A   Clear
2:15 PM 3.0 °F -10.5 °F -9.4 °F 56% 30.30 in 10.0 mi WNW 8.1 mph - N/A   Clear
2:35 PM 3.0 °F -11.5 °F -9.8 °F 55% 30.31 in 10.0 mi West 9.2 mph - N/A   Clear
2:55 PM 3.0 °F -11.5 °F -11.0 °F 52% 30.31 in 10.0 mi NNW 9.2 mph - N/A   Clear
3:15 PM 3.2 °F -10.3 °F -10.5 °F 53% 30.32 in 10.0 mi WNW 8.1 mph - N/A   Clear
3:35 PM 2.8 °F -13.5 °F -11.2 °F 52% 30.30 in 10.0 mi NW 11.5 mph - N/A   Scattered Clouds
3:55 PM 2.7 °F -14.5 °F -11.4 °F 52% 30.33 in 10.0 mi NW 12.7 mph - N/A   Scattered Clouds
4:15 PM 2.5 °F -12.2 °F -13.0 °F 49% 30.31 in 10.0 mi NW 9.2 mph - N/A   Mostly Cloudy
4:35 PM 2.3 °F -14.2 °F -12.5 °F 50% 30.32 in 10.0 mi NW 11.5 mph - N/A   Scattered Clouds
4:55 PM 1.8 °F -13.1 °F -14.3 °F 47% 30.32 in 10.0 mi NNW 9.2 mph - N/A   Clear
5:15 PM 1.2 °F -14.7 °F -14.6 °F 48% 30.32 in 10.0 mi NW 10.4 mph - N/A   Clear
5:35 PM 0.5 °F -16.5 °F -15.0 °F 48% 30.32 in 10.0 mi NW 11.5 mph - N/A   Clear
5:55 PM 0.3 °F -13.8 °F -14.8 °F 49% 30.35 in 10.0 mi NW 8.1 mph - N/A   Clear
6:15 PM 0.3 °F -13.8 °F -15.2 °F 48% 30.34 in 10.0 mi NW 8.1 mph - N/A   Clear
6:35 PM -0.4 °F -18.4 °F -16.1 °F 48% 30.34 in 10.0 mi NW 12.7 mph - N/A   Clear
6:55 PM -0.8 °F -18.0 °F -17.7 °F 45% 30.37 in 10.0 mi NW 11.5 mph - N/A   Clear
7:15 PM -0.9 °F -19.1 °F -17.9 °F 45% 30.38 in 10.0 mi WNW 12.7 mph - N/A   Clear
7:35 PM -0.9 °F -15.3 °F -17.0 °F 47% 30.38 in 10.0 mi NW 8.1 mph - N/A   Clear
7:55 PM -1.3 °F -19.6 °F -17.7 °F 46% 30.37 in 10.0 mi NNW 12.7 mph - N/A   Clear
8:15 PM -2.2 °F -22.2 °F -19.1 °F 45% 30.39 in 10.0 mi NW 15.0 mph - N/A   Clear
8:35 PM -2.7 °F -22.1 °F -19.5 °F 45% 30.39 in 10.0 mi NNW 13.8 mph 19.6 mph N/A   Clear
8:55 PM -3.1 °F -21.8 °F -20.4 °F 44% 30.39 in 10.0 mi NW 12.7 mph - N/A   Scattered Clouds
9:15 PM -3.5 °F -20.5 °F -20.9 °F 43% 30.39 in 10.0 mi NNW 10.4 mph - N/A   Scattered Clouds
9:35 PM -3.6 °F -20.7 °F -20.9 °F 44% 30.39 in 10.0 mi NNW 10.4 mph - N/A   Clear
9:55 PM -4.0 °F -21.2 °F -21.1 °F 44% 30.39 in 10.0 mi NNW 10.4 mph - N/A   Scattered Clouds
10:15 PM -4.9 °F -21.3 °F -22.2 °F 43% 30.39 in 10.0 mi NW 9.2 mph - N/A   Scattered Clouds
10:35 PM -5.4 °F -19.5 °F -22.4 °F 44% 30.40 in 10.0 mi NW 6.9 mph - N/A   Clear
10:55 PM -6.0 °F -21.5 °F -23.1 °F 44% 30.41 in 10.0 mi NW 8.1 mph - N/A   Clear
11:15 PM -6.7 °F -21.0 °F -23.3 °F 45% 30.41 in 10.0 mi NW 6.9 mph - N/A   Clear
11:35 PM -7.6 °F -23.4 °F -24.7 °F 43% 30.40 in 10.0 mi NW 8.1 mph - N/A   Clear
11:55 PM -8.1 °F -24.1 °F -24.7 °F 44% 30.41 in 10.0 mi NW 8.1 mph - N/A   Clear